THOR ABLESTAR DEB, 355

Orbit data source: Space-Track

THOR ABLESTAR DEB, 355 is space debris in LEO originally from a launch on Thu, 29 Jun 1961 UTC launched from the Air Force Eastern Test Range (AFETR). Debris objects in space refer to the collection of defunct objects orbiting the Earth. Examples of debris include non-operational satellites, rocket bodies, and fragments generated from explosions, collisions, or faulty payload assembly.

Loading next visibility...
THOR ABLESTAR DEB details
Identifier
355, 1961-015DV
Orbit
LEO
Last TLE update11 hours ago
Origin
Flag of USUSAF SSD (US)
ManufacturerUnknown
MissionSpacecraft
Bus & MotorUnknown
MassUnknown
Launch date (UTC)
1961-06-29 (64 years ago)
Launch vehicleUnknown
Launch site
Air Force Eastern Test Range (AFETR)
Object type
Payload
Rocket body
Debris
Shape & HBRUnknown
Radar Cross SectionMedium (>0.1 m² and <1 m²)

Expand to show TLE details & history

TLE from 11 hours ago
0 THOR ABLESTAR DEB
1 00355U 61015DV  25024.48587104  .00000735  00000-0  13693-2 0  9995
2 00355  67.2262  36.7600 0244187 207.6284 234.0994 13.33500047 81182
Epoch: 2025-01-24T11:39Z
Definitive object data (Epoch: 2025-01-24T11:39:39.257Z)
Latitude65.14538°
Longitude162.18938°
Altitude1,254.485 km
Speed7.181 km/s
True Right ascension06h 44m 36s
True Declination65° 01' 21"
Sunlit
Object was in full shadow at TLE epoch
Visualization TLE readout
Latitude14.12041°
Longitude-89.2505°
Altitude997.982 km
Speed7.421 km/s
Apparent Right ascension13h 15m 03s
Apparent Declination-11° 00' 21"
Sunlit
Object is in daylight
Visualization observer readout
Local Sidereal Time00:10:40
Azimuth329.317° NNW
Elevation-57.763°
Doppler factor1
Orbital elements
Apogee altitude1,315.367 km
Perigee altitude948.593 km
Semi-major axis7,510.117 km
Eccentricity0.0244187
Inclination67.2262°
RAAN36.76°
Arg. of periapsis207.6284°
True anomaly231.87322°
Mean anomaly234.0994°
Eccentric anomaly232.9823°
Mean motion3.33483 °/min
BSTAR0.0013693
Orbital period107.95 mins
Loading maneuver chart data...

THOR ABLESTAR DEB Visibility forecast

Observer location: undefined°, undefined

Span
Click to sort rows by Start time (UTC) header in descending order
Start Az.
Max El. time (UTC)
Max El. Az.
Max El.
End time (UTC)
End Az.
15 mins2025-01-25 01:44:06.293Z187.785° SSW2025-01-25 01:52:06.293Z101.826° ESE40.338°2025-01-25 01:59:06.293Z36.544° NE
13 mins2025-01-25 03:37:06.293Z251.357° W2025-01-25 03:43:06.293Z308.217° NW30.003°2025-01-25 03:50:06.293Z14.022° NNE
6 mins2025-01-25 09:25:06.293Z10.797° NNE2025-01-25 09:28:06.293Z39.587° NE16.399°2025-01-25 09:31:06.293Z67.967° E
11 mins2025-01-25 11:15:06.293Z337.754° N2025-01-25 11:20:06.293Z47.729° ENE43.467°2025-01-25 11:26:06.293Z143.041° SSE
7 mins2025-01-25 13:07:06.293Z292.201° WNW2025-01-25 13:10:06.293Z262.578° W18.051°2025-01-25 13:14:06.293Z221.456° SW
|